Location: Newark
(48.4472°N, 1.4892°E)
Time: 08:44:23
(UTC+00:00)

Vanguard 2 Rocket - Pass Details

Date: 20 November 2019
Orbit: 554 x 3326 km, 32.9° (Epoch: 10 December)

Event Time Altitude Azimuth Distance (km) Brightness Sun altitude
Exits shadow 06:04:21 - 245° (WSW) 3,689 9.6 -10.6°
Reaches altitude 10° 06:08:23 10° 218° (SW) 3,364 9.6 -10.0°
Maximum altitude 06:11:18 12° 198° (SSW) 3,539 9.9 -9.5°
Drops below altitude 10° 06:14:43 10° 179° (S) 4,080 10.5 -9.0°
Sets 06:22:16 0° 154° (SSE) 5,858 11.8 -7.8°
